Location: ????????
(56.1167°N, 38.6333°E)
Time: 21:03:30
(UTC+00:00)

SAR-Lupe-1 - Pass Details

Date: 18 November 2025
Orbit: 477 x 487 km, 98.1° (Epoch: 19 February)

Event Time Altitude Azimuth Distance (km) Brightness Sun altitude
Rises 14:31:58 0° 158° (SSE) 2,532 7.7 -10.8°
Reaches altitude 10° 14:34:01 10° 157° (SSE) 1,659 6.7 -11.0°
Maximum altitude 14:37:34 76° 72° (ENE) 505 3.9 -11.5°
Drops below altitude 10° 14:41:10 10° 347° (NNW) 1,679 6.8 -12.0°
Sets 14:43:15 0° 346° (NNW) 2,566 7.7 -12.3°
